Simultaneous Nadir Overpasses (SNOs) Predictions

Prediction of SNOs between AQUA and NPP Satellite Orbit:

Table of predicted SNOs for the next 14.0 days since TLE Epoch: 11/1/2019
Index Date (AQUA) Time (AQUA) Lat,Lon (AQUA) SZA (AQUA ) Date (NPP) Time (NPP) Lat,Lon (NPP) SZA (NPP ) Distance(km) Time Diff (sec)
1 11/03/2019 21:48:40 -75.66, -89.17 68.53 11/03/2019 21:48:05 -75.67, -89.11 68.51 1.90 35
2 11/03/2019 22:37:45 76.64, 81.55 110.45 11/03/2019 22:38:28 76.64, 81.58 110.41 0.65 43
3 11/06/2019 14:05:02 -75.95, 27.57 68.03 11/06/2019 14:04:53 -75.95, 27.59 68.03 0.41 9
4 11/06/2019 14:54:09 76.82,-161.91 111.05 11/06/2019 14:55:18 76.82,-161.95 110.99 0.97 69
5 11/09/2019 05:32:22 74.89, -27.15 113.83 11/09/2019 05:31:23 74.88, -27.23 113.91 2.60 59
6 11/09/2019 06:21:22 -76.28, 144.49 67.61 11/09/2019 06:21:39 -76.28, 144.48 67.62 0.47 17
7 11/11/2019 21:48:32 75.77, 91.17 113.67 11/11/2019 21:47:58 75.78, 91.25 113.68 2.25 34
8 11/11/2019 22:37:43 -76.60, -98.58 67.20 11/11/2019 22:38:26 -76.59, -98.60 67.24 0.61 43
9 11/14/2019 14:04:52 76.14,-151.82 114.00 11/14/2019 14:04:44 76.15,-151.75 113.99 1.97 8




NCC Satellite Simultaneous Nadir Overpasses (SNOs) Prediction Service
